Weather History for Punta Gorda, FL

Change the Weather History Date:

Friday, March 8, 2013

  Actual Average Record
Temperature  
Mean Temperature 60 °F -  
Max Temperature 78 °F 77 °F 87 °F (1997)
Min Temperature 41 °F 54 °F 41 °F (2013)
Degree Days  
Heating Degree Days 6    
Growing Degree Days 10 (Base 50)    
Moisture  
Dew Point 42 °F    
Average Humidity 64    
Maximum Humidity 93    
Minimum Humidity 21    
Precipitation  
Precipitation 0.00 in - - ()
Sea Level Pressure  
Sea Level Pressure 30.21 in    
Wind  
Wind Speed 6 mph (North)    
Max Wind Speed 15 mph    
Max Gust Speed -    
Visibility 8 miles    
Events      
Averages and records for this station are not official NWS values.
T = Trace of Precipitation, MM = Missing Value Source: NWS Daily Summary

Daily Weather History Graph

Daily Weather History Graph

Search for Another Location

Airport:

Trip Planner

Search our weather history database for the weather conditions in past years. The results will help you decide how hot, cold, wet, or windy it might be!

Date:

Astronomy

Mar. 08, 2013 Rise Set
Actual Time 6:44 AM EST 6:33 PM EST
Civil Twilight 6:21 AM EST 6:56 PM EST
Nautical Twilight 5:54 AM EST 7:23 PM EST
Astronomical Twilight 5:27 AM EST 7:50 PM EST
Moon 4:12 AM EST (3/8) 3:39 PM EST (3/8)
Length of Visible Light 12h 35m
Length of Day
11h 48m
Waning Crescent, 12% of the Moon is Illuminated
Mar 8
Waning Crescent
Mar 11
New
Mar 19
First Quarter
Mar 27
Full
Apr 3
Last Quarter

Hourly Weather History & Observations

Time (EST) Temp. Windchill Dew Point Humidity Pressure Visibility Wind Dir Wind Speed Gust Speed Precip Events Conditions
12:53 AM 44.1 °F 39.5 °F 39.9 °F 85% 30.23 in 8.0 mi NE 8.1 mph - N/A   Clear
1:53 AM 44.1 °F 42.5 °F 41.0 °F 89% 30.22 in 9.0 mi NNE 3.5 mph - N/A   Clear
2:53 AM 44.1 °F 40.8 °F 41.0 °F 89% 30.22 in 8.0 mi NNE 5.8 mph - N/A   Clear
3:53 AM 44.1 °F 40.8 °F 39.9 °F 85% 30.20 in 8.0 mi NE 5.8 mph - N/A   Clear
4:53 AM 41.0 °F 38.0 °F 39.0 °F 93% 30.21 in 6.0 mi NE 4.6 mph - N/A   Clear
5:53 AM 41.0 °F - 39.0 °F 93% 30.22 in 5.0 mi Calm Calm - N/A   Clear
6:53 AM 41.0 °F - 39.0 °F 93% 30.23 in 2.0 mi Calm Calm - N/A   Clear
7:10 AM 41.0 °F 38.0 °F 37.4 °F 87% 30.23 in 3.0 mi NNE 4.6 mph - N/A   Clear
7:53 AM 48.0 °F - 44.1 °F 86% 30.25 in 5.0 mi NNE 6.9 mph - N/A   Clear
8:53 AM 57.0 °F - 46.9 °F 69% 30.26 in 10.0 mi NE 4.6 mph - N/A   Clear
9:53 AM 64.0 °F - 44.1 °F 48% 30.26 in 10.0 mi NE 8.1 mph - N/A   Clear
10:53 AM 69.1 °F - 39.9 °F 35% 30.25 in 10.0 mi NNE 8.1 mph - N/A   Clear
11:53 AM 71.1 °F - 39.0 °F 31% 30.23 in 10.0 mi Calm Calm - N/A   Clear
12:53 PM 73.0 °F - 37.9 °F 28% 30.20 in 10.0 mi Calm Calm - N/A   Clear
1:53 PM 75.9 °F - 36.0 °F 23% 30.18 in 10.0 mi North 8.1 mph - N/A   Clear
2:53 PM 78.1 °F - 37.0 °F 23% 30.16 in 10.0 mi NW 8.1 mph - N/A   Clear
3:53 PM 78.1 °F - 35.1 °F 21% 30.15 in 10.0 mi NW 6.9 mph - N/A   Clear
4:53 PM 71.1 °F - 46.0 °F 41% 30.16 in 10.0 mi West 15.0 mph - N/A   Clear
5:53 PM 68.0 °F - 45.0 °F 43% 30.16 in 10.0 mi WNW 9.2 mph - N/A   Clear
6:53 PM 63.0 °F - 44.1 °F 50% 30.18 in 10.0 mi SW 5.8 mph - N/A   Clear
7:53 PM 61.0 °F - 50.0 °F 67% 30.19 in 10.0 mi WNW 8.1 mph - N/A   Clear
8:53 PM 59.0 °F - 50.0 °F 72% 30.21 in 10.0 mi WNW 6.9 mph - N/A   Clear
9:53 PM 55.9 °F - 48.0 °F 75% 30.22 in 10.0 mi North 4.6 mph - N/A   Clear
10:53 PM 52.0 °F - 46.9 °F 83% 30.22 in 10.0 mi North 3.5 mph - N/A   Clear
11:53 PM 50.0 °F - 46.0 °F 86% 30.21 in 8.0 mi NNE 3.5 mph - N/A   Clear